| time (UTC) | temp F | wind direction | speed MPH | gust MPH | rain 1hr in | rain 24hr in | rain mn in | humidity % | barometer mb |
| 20260507120821 | 32 | 202 | 0.0 | 0.0 | 0.00 | 0.00 | 0.00 | 87 | 1017.8 |
| 20260507115918 | 30 | 202 | 0.0 | 0.0 | 0.00 | 0.00 | 0.00 | 86 | 1017.8 |
| 20260507114919 | 29 | 202 | 0.0 | 0.0 | 0.00 | 0.00 | 0.00 | 86 | 1017.8 |
| 20260507114018 | 29 | 202 | 1.0 | 3.0 | 0.00 | 0.00 | 0.00 | 86 | 1018.1 |
| 20260507113019 | 29 | 202 | 1.0 | 2.0 | 0.00 | 0.00 | 0.00 | 86 | 1018.1 |
| 20260507112018 | 29 | 202 | 0.0 | 0.0 | 0.00 | 0.00 | 0.00 | 86 | 1017.8 |
| 20260507111020 | 29 | 202 | 0.0 | 0.0 | 0.00 | 0.00 | 0.00 | 86 | 1017.8 |
| 20260507110019 | 28 | 202 | 0.0 | 0.0 | 0.00 | 0.00 | 0.00 | 87 | 1018.1 |
| 20260507105117 | 27 | 202 | 0.0 | 0.0 | 0.00 | 0.00 | 0.00 | 87 | 1018.5 |
| 20260507104119 | 27 | 202 | 0.0 | 0.0 | 0.00 | 0.00 | 0.00 | 86 | 1018.5 |
| 20260507103217 | 27 | 202 | 0.0 | 0.0 | 0.00 | 0.00 | 0.00 | 85 | 1018.5 |
| 20260507102217 | 28 | 202 | 0.0 | 0.0 | 0.00 | 0.00 | 0.00 | 84 | 1018.1 |
| 20260507101220 | 28 | 202 | 1.0 | 2.0 | 0.00 | 0.00 | 0.00 | 85 | 1018.1 |
| 20260507100318 | 28 | 202 | 2.0 | 3.0 | 0.00 | 0.00 | 0.00 | 85 | 1018.1 |
| 20260507095319 | 28 | 202 | 2.0 | 3.0 | 0.00 | 0.00 | 0.00 | 84 | 1018.1 |
| 20260507093319 | 28 | 202 | 2.0 | 3.0 | 0.00 | 0.00 | 0.00 | 83 | 1018.1 |
| 20260507092417 | 28 | 202 | 2.0 | 4.0 | 0.00 | 0.00 | 0.00 | 83 | 1018.1 |
| 20260507091435 | 28 | 202 | 2.0 | 4.0 | 0.00 | 0.00 | 0.00 | 84 | 1018.1 |
| 20260507090520 | 28 | 202 | 3.0 | 4.0 | 0.00 | 0.00 | 0.00 | 82 | 1018.1 |
| 20260507085519 | 29 | 202 | 2.0 | 4.0 | 0.00 | 0.00 | 0.00 | 84 | 1018.1 |
| 20260507084519 | 28 | 202 | 2.0 | 4.0 | 0.00 | 0.00 | 0.00 | 83 | 1018.1 |
| 20260507083519 | 29 | 202 | 2.0 | 3.0 | 0.00 | 0.00 | 0.00 | 82 | 1018.1 |
| 20260507082519 | 29 | 202 | 3.0 | 4.0 | 0.00 | 0.00 | 0.00 | 82 | 1018.1 |
| 20260507080618 | 29 | 202 | 1.0 | 2.0 | 0.00 | 0.00 | 0.00 | 83 | 1018.1 |
| 20260507075618 | 29 | 202 | 1.0 | 2.0 | 0.00 | 0.00 | 0.00 | 81 | 1018.1 |
| 20260507074621 | 29 | 202 | 1.0 | 2.0 | 0.00 | 0.00 | 0.00 | 81 | 1018.5 |
| 20260507073719 | 29 | 202 | 2.0 | 3.0 | 0.00 | 0.00 | 0.00 | 81 | 1018.5 |
| 20260507072718 | 29 | 202 | 2.0 | 3.0 | 0.00 | 0.00 | 0.00 | 80 | 1018.3 |
| 20260507071719 | 30 | 202 | 3.0 | 4.0 | 0.00 | 0.00 | 0.00 | 79 | 1018.3 |
| 20260507070718 | 30 | 202 | 2.0 | 3.0 | 0.00 | 0.00 | 0.00 | 79 | 1018.5 |
| 20260507065816 | 31 | 202 | 1.0 | 3.0 | 0.00 | 0.00 | 0.00 | 78 | 1018.5 |
| 20260507063918 | 31 | 202 | 2.0 | 3.0 | 0.00 | 0.00 | 0.00 | 78 | 1018.5 |
| 20260507062919 | 31 | 202 | 4.0 | 5.0 | 0.00 | 0.00 | 0.00 | 76 | 1018.5 |
| 20260507061917 | 32 | 202 | 3.0 | 5.0 | 0.00 | 0.00 | 0.00 | 75 | 1018.5 |
| 20260507060918 | 32 | 202 | 3.0 | 5.0 | 0.00 | 0.00 | 0.00 | 74 | 1018.5 |
| 20260507055920 | 32 | 202 | 2.0 | 3.0 | 0.00 | 0.00 | 0.00 | 74 | 1018.5 |
| 20260507053919 | 33 | 202 | 3.0 | 4.0 | 0.00 | 0.00 | 0.00 | 72 | 1018.5 |
| 20260507052018 | 33 | 202 | 2.0 | 3.0 | 0.00 | 0.00 | 0.00 | 71 | 1018.5 |
| 20260507051020 | 34 | 202 | 2.0 | 3.0 | 0.00 | 0.00 | 0.00 | 70 | 1018.5 |
| 20260507050032 | 34 | 202 | 1.0 | 2.0 | 0.00 | 0.00 | 0.00 | 68 | 1018.5 |
| 20260507045129 | 35 | 202 | 1.0 | 2.0 | 0.00 | 0.00 | 0.00 | 68 | 1018.5 |
| 20260507044129 | 35 | 202 | 3.0 | 4.0 | 0.00 | 0.00 | 0.00 | 67 | 1018.5 |
| 20260507043146 | 36 | 202 | 4.0 | 6.0 | 0.00 | 0.00 | 0.00 | 66 | 1018.5 |
| 20260507042230 | 36 | 202 | 1.0 | 2.0 | 0.00 | 0.00 | 0.00 | 65 | 1018.5 |
| 20260507040230 | 38 | 202 | 2.0 | 4.0 | 0.00 | 0.00 | 0.00 | 64 | 1018.5 |
| 20260507035329 | 38 | 202 | 1.0 | 3.0 | 0.00 | 0.00 | 0.00 | 64 | 1018.5 |
| 20260507034330 | 38 | 202 | 2.0 | 3.0 | 0.00 | 0.00 | 0.00 | 63 | 1018.5 |
| 20260507033429 | 38 | 247 | 0.0 | 0.0 | 0.00 | 0.00 | 0.00 | 63 | 1018.5 |
| 20260507032429 | 38 | 247 | 0.0 | 0.0 | 0.00 | 0.00 | 0.00 | 62 | 1018.5 |
| 20260507031430 | 37 | 270 | 0.0 | 0.0 | 0.00 | 0.00 | 0.00 | 63 | 1018.5 |
| 20260507030430 | 38 | 270 | 0.0 | 0.0 | 0.00 | 0.00 | 0.00 | 63 | 1018.5 |
| 20260507025430 | 38 | 292 | 0.0 | 0.0 | 0.00 | 0.00 | 0.00 | 63 | 1018.5 |
| 20260507024429 | 38 | 292 | 0.0 | 0.0 | 0.00 | 0.00 | 0.00 | 59 | 1018.8 |
| 20260507023430 | 38 | 292 | 0.0 | 0.0 | 0.00 | 0.00 | 0.00 | 60 | 1018.8 |
| 20260507022528 | 38 | 292 | 0.0 | 0.0 | 0.00 | 0.00 | 0.00 | 60 | 1018.8 |
| 20260507021531 | 39 | 292 | 0.0 | 0.0 | 0.00 | 0.00 | 0.00 | 57 | 1018.8 |
| 20260507020431 | 39 | 292 | 0.0 | 0.0 | 0.00 | 0.00 | 0.00 | 56 | 1018.8 |
| 20260507015432 | 39 | 292 | 0.0 | 0.0 | 0.00 | 0.00 | 0.00 | 55 | 1018.5 |
| 20260507013529 | 40 | 292 | 1.0 | 2.0 | 0.00 | 0.00 | 0.00 | 55 | 1018.5 |
| 20260507012529 | 40 | 292 | 0.0 | 1.0 | 0.00 | 0.00 | 0.00 | 55 | 1018.5 |
| 20260507011530 | 40 | 292 | 2.0 | 3.0 | 0.00 | 0.00 | 0.00 | 55 | 1018.5 |
| 20260507010530 | 40 | 292 | 4.0 | 6.0 | 0.00 | 0.00 | 0.00 | 54 | 1018.5 |
| 20260507005530 | 41 | 315 | 4.0 | 6.0 | 0.00 | 0.00 | 0.00 | 54 | 1018.5 |
| 20260507004529 | 41 | 270 | 4.0 | 7.0 | 0.00 | 0.00 | 0.00 | 53 | 1018.5 |
| 20260507003529 | 41 | 299 | 6.0 | 8.0 | 0.00 | 0.00 | 0.00 | 53 | 1018.5 |
| 20260507002530 | 41 | 298 | 8.0 | 10.0 | 0.00 | 0.00 | 0.00 | 52 | 1018.5 |
| 20260507001530 | 41 | 315 | 4.0 | 8.0 | 0.00 | 0.00 | 0.00 | 53 | 1018.5 |
| 20260507000531 | 41 | 315 | 7.0 | 9.0 | 0.00 | 0.00 | 0.00 | 52 | 1018.5 |
| 20260506235629 | 41 | 284 | 5.0 | 9.0 | 0.00 | 0.00 | 0.00 | 51 | 1018.5 |
| 20260506234631 | 41 | 273 | 5.0 | 9.0 | 0.00 | 0.00 | 0.00 | 51 | 1018.5 |
| 20260506233729 | 41 | 275 | 4.0 | 7.0 | 0.00 | 0.00 | 0.00 | 52 | 1018.5 |
| 20260506232828 | 42 | 276 | 5.0 | 9.0 | 0.00 | 0.00 | 0.00 | 51 | 1018.5 |
| 20260506231828 | 42 | 274 | 6.0 | 10.0 | 0.00 | 0.00 | 0.00 | 50 | 1018.5 |
| 20260506230829 | 42 | 272 | 8.0 | 14.0 | 0.00 | 0.00 | 0.00 | 52 | 1018.5 |
| 20260506225830 | 41 | 298 | 8.0 | 12.0 | 0.00 | 0.00 | 0.00 | 51 | 1018.5 |
| 20260506224930 | 41 | 268 | 8.0 | 12.0 | 0.00 | 0.00 | 0.00 | 52 | 1018.8 |
| 20260506223929 | 41 | 261 | 7.0 | 9.0 | 0.00 | 0.00 | 0.00 | 52 | 1018.8 |
| 20260506222929 | 41 | 269 | 9.0 | 12.0 | 0.00 | 0.00 | 0.00 | 52 | 1018.5 |
| 20260506221930 | 41 | 269 | 8.0 | 11.0 | 0.00 | 0.00 | 0.00 | 51 | 1018.8 |
| 20260506220932 | 42 | 271 | 10.0 | 14.0 | 0.00 | 0.00 | 0.00 | 51 | 1018.8 |
| 20260506215930 | 42 | 270 | 8.0 | 13.0 | 0.00 | 0.00 | 0.00 | 51 | 1018.8 |
| 20260506214929 | 42 | 296 | 8.0 | 13.0 | 0.00 | 0.00 | 0.00 | 52 | 1018.8 |
| 20260506214029 | 41 | 276 | 7.0 | 9.0 | 0.00 | 0.00 | 0.00 | 52 | 1018.8 |
| 20260506212029 | 42 | 254 | 10.0 | 16.0 | 0.00 | 0.00 | 0.00 | 50 | 1019.2 |
| 20260506211030 | 42 | 254 | 7.0 | 13.0 | 0.00 | 0.00 | 0.00 | 51 | 1018.8 |
| 20260506205028 | 42 | 311 | 11.0 | 15.0 | 0.00 | 0.00 | 0.00 | 50 | 1019.2 |
| 20260506204028 | 41 | 298 | 7.0 | 13.0 | 0.00 | 0.00 | 0.00 | 52 | 1019.2 |
| 20260506203030 | 41 | 298 | 7.0 | 12.0 | 0.00 | 0.00 | 0.00 | 54 | 1019.2 |
| 20260506202029 | 41 | 282 | 7.0 | 15.0 | 0.00 | 0.00 | 0.00 | 53 | 1019.5 |
| 20260506201030 | 40 | 296 | 7.0 | 12.0 | 0.00 | 0.00 | 0.00 | 54 | 1019.2 |
| 20260506195029 | 41 | 274 | 9.0 | 12.0 | 0.00 | 0.00 | 0.00 | 54 | 1019.5 |
| 20260506194030 | 41 | 305 | 8.0 | 13.0 | 0.00 | 0.00 | 0.00 | 54 | 1019.5 |
| 20260506193028 | 40 | 273 | 9.0 | 12.0 | 0.00 | 0.00 | 0.00 | 54 | 1019.5 |
| 20260506192029 | 41 | 274 | 7.0 | 10.0 | 0.00 | 0.00 | 0.00 | 54 | 1019.5 |
| 20260506191029 | 41 | 297 | 8.0 | 12.0 | 0.00 | 0.00 | 0.00 | 54 | 1019.5 |
| 20260506185029 | 40 | 300 | 7.0 | 12.0 | 0.00 | 0.00 | 0.00 | 56 | 1019.5 |
| 20260506184128 | 40 | 276 | 7.0 | 10.0 | 0.00 | 0.00 | 0.00 | 56 | 1019.5 |
| 20260506183130 | 40 | 288 | 7.0 | 10.0 | 0.00 | 0.00 | 0.00 | 56 | 1019.5 |
| 20260506182129 | 40 | 318 | 7.0 | 10.0 | 0.00 | 0.00 | 0.00 | 58 | 1019.5 |
| 20260506180128 | 39 | 277 | 6.0 | 9.0 | 0.00 | 0.00 | 0.00 | 57 | 1019.9 |
| 20260506175129 | 39 | 263 | 8.0 | 12.0 | 0.00 | 0.00 | 0.00 | 57 | 1019.9 |
| 20260506174130 | 39 | 307 | 9.0 | 13.0 | 0.00 | 0.00 | 0.00 | 58 | 1019.9 |
| 20260506173128 | 39 | 281 | 8.0 | 12.0 | 0.00 | 0.00 | 0.00 | 58 | 1019.5 |
| 20260506172129 | 39 | 308 | 8.0 | 13.0 | 0.00 | 0.00 | 0.00 | 58 | 1019.9 |
| 20260506171146 | 39 | 304 | 7.0 | 12.0 | 0.00 | 0.00 | 0.00 | 57 | 1019.9 |
| 20260506170228 | 39 | 308 | 10.0 | 15.0 | 0.00 | 0.00 | 0.00 | 58 | 1019.9 |
| 20260506165230 | 39 | 304 | 9.0 | 14.0 | 0.00 | 0.00 | 0.00 | 55 | 1019.9 |
| 20260506164229 | 39 | 286 | 8.0 | 16.0 | 0.00 | 0.00 | 0.00 | 54 | 1019.9 |
| 20260506163229 | 39 | 271 | 7.0 | 9.0 | 0.00 | 0.00 | 0.00 | 56 | 1019.5 |
| 20260506160329 | 39 | 318 | 10.0 | 14.0 | 0.00 | 0.00 | 0.00 | 58 | 1019.9 |
| 20260506155427 | 39 | 281 | 5.0 | 8.0 | 0.00 | 0.00 | 0.00 | 61 | 1019.9 |
| 20260506154444 | 38 | 311 | 7.0 | 9.0 | 0.00 | 0.00 | 0.00 | 61 | 1019.9 |
| 20260506153429 | 38 | 310 | 8.0 | 13.0 | 0.00 | 0.00 | 0.00 | 62 | 1019.9 |
| 20260506152430 | 38 | 247 | 6.0 | 9.0 | 0.00 | 0.00 | 0.00 | 61 | 1019.9 |
| 20260506151429 | 38 | 247 | 4.0 | 7.0 | 0.00 | 0.00 | 0.00 | 62 | 1019.9 |
| 20260506150429 | 38 | 276 | 6.0 | 8.0 | 0.00 | 0.00 | 0.00 | 62 | 1019.9 |
| 20260506145527 | 38 | 298 | 7.0 | 11.0 | 0.00 | 0.00 | 0.00 | 62 | 1019.9 |
| 20260506144529 | 38 | 348 | 6.0 | 9.0 | 0.00 | 0.00 | 0.00 | 63 | 1019.9 |
| 20260506143627 | 37 | 225 | 5.0 | 9.0 | 0.00 | 0.00 | 0.00 | 63 | 1019.9 |
| 20260506142628 | 37 | 281 | 5.0 | 8.0 | 0.00 | 0.00 | 0.00 | 64 | 1019.9 |
| 20260506141628 | 37 | 254 | 4.0 | 6.0 | 0.00 | 0.00 | 0.00 | 64 | 1019.9 |
| 20260506140628 | 37 | 294 | 4.0 | 6.0 | 0.00 | 0.00 | 0.00 | 65 | 1019.9 |
| 20260506135629 | 37 | 337 | 7.0 | 10.0 | 0.00 | 0.00 | 0.00 | 67 | 1019.9 |
| 20260506134630 | 37 | 316 | 5.0 | 9.0 | 0.00 | 0.00 | 0.00 | 66 | 1019.6 |
| 20260506133629 | 37 | 330 | 6.0 | 9.0 | 0.00 | 0.00 | 0.00 | 67 | 1019.3 |
| 20260506132629 | 36 | 312 | 6.0 | 8.0 | 0.00 | 0.00 | 0.00 | 67 | 1019.2 |
| 20260506131629 | 36 | 311 | 7.0 | 10.0 | 0.00 | 0.00 | 0.00 | 68 | 1019.2 |
| 20260506130728 | 36 | 307 | 7.0 | 9.0 | 0.00 | 0.00 | 0.00 | 70 | 1019.2 |
| 20260506125729 | 35 | 305 | 5.0 | 8.0 | 0.00 | 0.00 | 0.00 | 71 | 1019.2 |
| 20260506124729 | 35 | 297 | 6.0 | 10.0 | 0.00 | 0.00 | 0.00 | 71 | 1019.2 |
| 20260506121829 | 34 | 292 | 6.0 | 9.0 | 0.00 | 0.00 | 0.00 | 76 | 1019.2 |